contact:dominique.lefevre@mio.osupytheas.fr, maurice.libes@osupytheas.fr
Project:EMSO Ligure-ouest http://www.emso-fr.org/EMSO-France
Sensor Aquadopp, line 13 Serial AQD14315 
DOI : "https://doi.org/10.17882/74513; https://doi.org/10.17882/83244" 
Title:EMSO Ligure Ouest : Data ligne ALBATROSS capteur AQUADOPP - deploiement 2021
Id,Date,Profondeur,Latitude,Longitude,X_East,Y_North,Z_Up,Amplitude_X,Amplitude_Y,Amplitude_Z,Batterie,SoundSpeed,Heading,Pitch,Roll,Pressure,Temperature,Speed,Direction
, , m, degrees North, degrees East, m.s-1, m.s-1,m.s-1, 1, 1, 1, Volt, m.s-1, degree, degree, degree, dbar, degree_C, m.s-1, degree
13,2022-07-27T23:30:00,2400.0,42.79,6.0312,-0.04,-0.003,-0.011,68.0,60.0,59.0,13.2,1504.9,210.3,0.0,-0.3,2393.092,13.34,0.04,265.7
13,2022-07-28T00:00:00,2400.0,42.79,6.0312,-0.019,0.004,-0.004,62.0,56.0,56.0,13.2,1504.9,219.1,-0.1,-0.3,2393.096,13.34,0.019,281.9
13,2022-07-28T00:30:00,2400.0,42.79,6.0312,-0.018,-0.011,-0.003,66.0,60.0,63.0,13.2,1504.9,221.2,-0.1,-0.4,2393.081,13.34,0.021,238.6
13,2022-07-28T01:00:00,2400.0,42.79,6.0312,-0.028,0.016,-0.008,63.0,59.0,62.0,13.2,1504.9,226.4,-0.1,-0.4,2393.075,13.34,0.032,299.7
13,2022-07-28T01:30:00,2400.0,42.79,6.0312,-0.038,-0.005,0.017,64.0,58.0,64.0,13.2,1504.9,227.7,0.0,-0.3,2393.094,13.34,0.038,262.5
13,2022-07-28T02:00:00,2400.0,42.79,6.0312,-0.013,0.001,-0.009,63.0,57.0,62.0,13.2,1504.9,222.5,-0.2,-0.4,2393.07,13.34,0.013,274.4
13,2022-07-28T02:30:00,2400.0,42.79,6.0312,-0.021,0.027,0.019,63.0,57.0,59.0,13.2,1504.9,217.0,-0.1,-0.3,2393.045,13.34,0.034,322.1
13,2022-07-28T03:00:00,2400.0,42.79,6.0312,0.001,0.008,0.0,63.0,57.0,60.0,13.2,1504.9,214.6,-0.1,-0.3,2393.044,13.34,0.008,7.1
13,2022-07-28T03:30:00,2400.0,42.79,6.0312,-0.006,0.018,-0.007,65.0,63.0,65.0,13.1,1504.9,213.5,-0.1,-0.3,2393.081,13.34,0.018,341.6
13,2022-07-28T04:00:00,2400.0,42.79,6.0312,-0.001,0.024,0.001,66.0,59.0,59.0,13.2,1504.9,212.1,-0.1,-0.4,2393.101,13.34,0.024,357.6
13,2022-07-28T04:30:00,2400.0,42.79,6.0312,0.0,-0.003,0.005,67.0,61.0,62.0,13.2,1504.9,210.4,-0.1,-0.3,2393.105,13.34,0.003,180.0
13,2022-07-28T05:00:00,2400.0,42.79,6.0312,-0.006,-0.004,0.008,64.0,58.0,59.0,13.2,1504.9,210.4,-0.1,-0.3,2393.11,13.34,0.007,236.3
13,2022-07-28T05:30:00,2400.0,42.79,6.0312,-0.003,0.003,0.006,65.0,59.0,59.0,13.2,1504.9,213.2,-0.1,-0.3,2393.077,13.34,0.004,315.0
13,2022-07-28T06:00:00,2400.0,42.79,6.0312,0.003,-0.006,-0.028,62.0,60.0,59.0,13.2,1504.9,215.0,-0.1,-0.2,2393.147,13.34,0.006,153.4
13,2022-07-28T06:30:00,2400.0,42.79,6.0312,0.02,-0.007,-0.012,63.0,57.0,63.0,13.2,1504.9,215.1,0.0,-0.3,2393.176,13.34,0.021,109.3
13,2022-07-28T07:00:00,2400.0,42.79,6.0312,0.015,-0.009,-0.003,64.0,60.0,61.0,13.2,1504.9,214.0,-0.1,-0.2,2393.187,13.34,0.017,121.0
13,2022-07-28T07:30:00,2400.0,42.79,6.0312,0.008,0.0,-0.024,66.0,60.0,58.0,13.2,1504.9,214.1,0.0,-0.3,2393.164,13.34,0.008,90.0
13,2022-07-28T08:00:00,2400.0,42.79,6.0312,-0.007,-0.021,-0.004,64.0,61.0,59.0,13.2,1504.9,212.4,0.0,-0.3,2393.148,13.34,0.022,198.4
13,2022-07-28T08:30:00,2400.0,42.79,6.0312,-0.009,-0.031,-0.007,67.0,58.0,58.0,13.2,1504.9,211.6,-0.1,-0.3,2393.112,13.34,0.032,196.2
13,2022-07-28T09:00:00,2400.0,42.79,6.0312,-0.011,-0.037,0.005,65.0,59.0,62.0,13.2,1504.9,222.6,-0.1,-0.3,2393.101,13.34,0.038,196.6
13,2022-07-28T09:30:00,2400.0,42.79,6.0312,-0.024,-0.027,-0.043,65.0,59.0,59.0,13.1,1504.9,216.9,-0.1,-0.2,2393.122,13.34,0.036,221.6
13,2022-07-28T10:00:00,2400.0,42.79,6.0312,-0.012,-0.021,0.0,68.0,58.0,59.0,13.2,1504.9,221.8,-0.1,-0.3,2393.099,13.34,0.024,209.7
13,2022-07-28T10:30:00,2400.0,42.79,6.0312,-0.007,-0.041,-0.02,67.0,59.0,61.0,13.2,1504.9,220.1,-0.1,-0.2,2393.038,13.34,0.041,189.7
13,2022-07-28T11:00:00,2400.0,42.79,6.0312,-0.036,-0.023,-0.016,62.0,58.0,61.0,13.2,1504.9,230.5,-0.1,-0.3,2393.033,13.34,0.042,237.4
13,2022-07-28T11:30:00,2400.0,42.79,6.0312,-0.017,-0.022,0.007,67.0,59.0,60.0,13.2,1504.9,190.1,0.0,-0.2,2393.029,13.34,0.027,217.7
13,2022-07-28T12:00:00,2400.0,42.79,6.0312,-0.012,-0.02,0.003,65.0,59.0,62.0,13.2,1504.9,196.9,-0.2,-0.3,2393.012,13.34,0.023,211.0
13,2022-07-28T13:00:00,2400.0,42.79,6.0312,-0.034,-0.017,-0.027,64.0,59.0,60.0,13.2,1504.9,204.6,-0.1,-0.2,2392.96,13.34,0.038,243.4
13,2022-07-28T13:30:00,2400.0,42.79,6.0312,-0.035,0.003,0.0,64.0,58.0,60.0,13.1,1504.9,208.1,-0.1,-0.3,2392.981,13.34,0.035,274.9
13,2022-07-28T14:00:00,2400.0,42.79,6.0312,-0.036,-0.005,-0.006,64.0,60.0,59.0,13.2,1504.9,207.5,-0.2,-0.3,2393.027,13.34,0.036,262.1
13,2022-07-28T14:30:00,2400.0,42.79,6.0312,-0.025,0.012,-0.023,65.0,58.0,61.0,13.2,1504.9,212.1,-0.1,-0.1,2392.996,13.34,0.027,295.6
13,2022-07-28T15:00:00,2400.0,42.79,6.0312,-0.055,-0.012,-0.031,65.0,60.0,61.0,13.2,1504.9,207.6,-0.1,-0.3,2393.05,13.34,0.056,257.7
13,2022-07-28T15:30:00,2400.0,42.79,6.0312,-0.03,0.004,-0.008,66.0,61.0,62.0,13.2,1504.9,216.5,0.0,-0.3,2393.028,13.34,0.03,277.6
13,2022-07-28T16:00:00,2400.0,42.79,6.0312,-0.025,0.013,-0.002,67.0,56.0,60.0,13.1,1504.9,212.6,-0.2,-0.3,2393.097,13.34,0.028,297.5
13,2022-07-28T16:30:00,2400.0,42.79,6.0312,-0.025,-0.014,-0.01,66.0,60.0,61.0,13.2,1504.9,210.6,-0.2,-0.3,2393.108,13.34,0.028,240.7
13,2022-07-28T17:00:00,2400.0,42.79,6.0312,-0.02,0.007,-0.01,64.0,59.0,60.0,13.2,1504.9,214.5,-0.1,-0.3,2393.141,13.34,0.021,289.3
13,2022-07-28T17:30:00,2400.0,42.79,6.0312,-0.037,-0.024,0.0,61.0,58.0,59.0,13.2,1504.9,206.0,-0.2,-0.3,2393.142,13.34,0.044,237.0
13,2022-07-28T18:00:00,2400.0,42.79,6.0312,-0.008,-0.001,0.0,64.0,59.0,61.0,13.2,1504.9,208.0,-0.2,-0.3,2393.196,13.34,0.008,262.9
13,2022-07-28T18:30:00,2400.0,42.79,6.0312,-0.022,-0.019,-0.003,63.0,58.0,57.0,13.1,1504.9,208.5,-0.1,-0.2,2393.213,13.34,0.029,229.2
13,2022-07-28T19:00:00,2400.0,42.79,6.0312,-0.029,-0.005,-0.001,65.0,59.0,62.0,13.2,1504.9,205.9,-0.2,-0.3,2393.227,13.34,0.029,260.2
13,2022-07-28T19:30:00,2400.0,42.79,6.0312,-0.001,-0.017,0.003,64.0,58.0,62.0,13.2,1504.9,208.2,-0.2,-0.2,2393.252,13.34,0.017,183.4
13,2022-07-28T20:00:00,2400.0,42.79,6.0312,-0.007,-0.003,0.0,66.0,62.0,63.0,13.2,1504.9,209.1,-0.1,-0.1,2393.225,13.34,0.007,246.8
13,2022-07-28T20:30:00,2400.0,42.79,6.0312,-0.019,-0.007,-0.011,67.0,60.0,60.0,13.1,1504.9,207.7,-0.2,-0.2,2393.226,13.34,0.02,249.8
13,2022-07-28T21:00:00,2400.0,42.79,6.0312,-0.01,-0.007,-0.003,63.0,60.0,60.0,13.1,1504.9,209.1,-0.2,-0.1,2393.261,13.34,0.012,235.0
13,2022-07-28T21:30:00,2400.0,42.79,6.0312,-0.011,-0.014,-0.001,65.0,60.0,61.0,13.1,1504.9,207.8,-0.3,-0.1,2393.246,13.34,0.017,218.2
13,2022-07-28T22:00:00,2400.0,42.79,6.0312,-0.021,-0.011,-0.028,67.0,60.0,63.0,13.2,1504.9,206.3,-0.2,0.0,2393.262,13.34,0.023,242.4
13,2022-07-28T22:30:00,2400.0,42.79,6.0312,0.008,-0.001,-0.018,71.0,64.0,63.0,13.2,1504.9,206.7,-0.3,-0.1,2393.225,13.34,0.008,97.1
13,2022-07-28T23:00:00,2400.0,42.79,6.0312,-0.015,-0.009,-0.025,69.0,61.0,63.0,13.1,1504.9,211.1,-0.3,-0.1,2393.252,13.34,0.017,239.0
